TimeCST,TemperatureF,Dew PointF,Humidity,Sea Level PressureIn,VisibilityMPH,Wind Direction,Wind SpeedMPH,Gust SpeedMPH,PrecipitationIn,Events,Conditions,WindDirDegrees,DateUTC
12:56 AM,16.2,15.1,95,-9999,8.0,North,-9999.0,-,N/A,,Unknown,0,2013-01-04 06:56:00
1:56 AM,-9999,-9999,N/A,-9999,-9999.0,North,-9999.0,-,N/A,,Unknown,0,2013-01-04 07:56:00
2:56 AM,-9999,-9999,N/A,-9999,-9999.0,North,-9999.0,-,N/A,,Unknown,0,2013-01-04 08:56:00
3:56 AM,15.1,14.0,95,30.44,-9999.0,Calm,Calm,-,N/A,,Unknown,0,2013-01-04 09:56:00
4:56 AM,18.1,17.1,96,-9999,-9999.0,North,-9999.0,-,N/A,,Unknown,0,2013-01-04 10:56:00
5:56 AM,16.2,14.0,91,-9999,6.0,North,-9999.0,-,N/A,,Mist,0,2013-01-04 11:56:00
6:56 AM,17.1,16.2,96,-9999,-9999.0,North,-9999.0,-,N/A,,Unknown,0,2013-01-04 12:56:00
7:56 AM,22.1,21.0,96,30.48,5.0,Calm,Calm,-,N/A,,Mist,0,2013-01-04 13:56:00
8:56 AM,-9999,-9999,N/A,-9999,-9999.0,North,-9999.0,-,N/A,,Unknown,0,2013-01-04 14:56:00
9:56 AM,-9999,-9999,N/A,-9999,-9999.0,North,-9999.0,-,N/A,,Unknown,0,2013-01-04 15:56:00
10:56 AM,34.0,27.1,76,30.43,10.0,SSW,6.9,-,N/A,,Clear,200,2013-01-04 16:56:00
11:56 AM,-9999,-9999,N/A,-9999,-9999.0,North,-9999.0,-,N/A,,Unknown,0,2013-01-04 17:56:00
12:56 PM,-9999,-9999,N/A,-9999,-9999.0,North,-9999.0,-,N/A,,Unknown,0,2013-01-04 18:56:00
1:56 PM,39.9,25.2,56,30.39,10.0,West,6.9,-,N/A,,Unknown,270,2013-01-04 19:56:00
2:56 PM,37.9,25.2,60,30.40,10.0,WNW,4.6,-,N/A,,Mostly Cloudy,300,2013-01-04 20:56:00
3:56 PM,37.9,24.1,57,30.46,10.0,NW,5.8,-,N/A,,Overcast,310,2013-01-04 21:56:00
4:56 PM,30.0,23.0,75,30.46,10.0,Calm,Calm,-,N/A,,Clear,0,2013-01-04 22:56:00
5:56 PM,26.1,23.0,88,30.47,10.0,Calm,Calm,-,N/A,,Unknown,0,2013-01-04 23:56:00
6:56 PM,23.0,21.0,92,-9999,-9999.0,North,-9999.0,-,N/A,,Unknown,0,2013-01-05 00:56:00
7:56 PM,22.1,20.1,92,-9999,-9999.0,North,-9999.0,-,N/A,,Unknown,0,2013-01-05 01:56:00
8:56 PM,19.0,18.1,96,30.42,10.0,Calm,Calm,-,N/A,,Unknown,0,2013-01-05 02:56:00
9:56 PM,18.1,17.1,96,30.42,10.0,Calm,Calm,-,N/A,,Unknown,0,2013-01-05 03:56:00
10:56 PM,-9999,-9999,N/A,-9999,-9999.0,North,-9999.0,-,N/A,,Unknown,0,2013-01-05 04:56:00
11:56 PM,18.1,17.1,96,30.40,10.0,Calm,Calm,-,N/A,,Unknown,0,2013-01-05 05:56:00